Simultaneous Nadir Overpasses (SNOs) Predictions

Prediction of SNOs between AURA and NPP Satellite Orbit:

Table of predicted SNOs for the next 14.0 days since TLE Epoch: 7/27/2019
Index Date (AURA) Time (AURA) Lat,Lon (AURA) SZA (AURA ) Date (NPP) Time (NPP) Lat,Lon (NPP) SZA (NPP ) Distance(km) Time Diff (sec)
1 07/28/2019 10:35:33 -79.16, 95.65 105.49 07/28/2019 10:34:23 -79.16, 95.67 105.44 0.44 70
2 07/28/2019 11:24:53 79.39, -95.24 74.19 07/28/2019 11:25:01 79.38, -95.33 74.21 2.04 8
3 07/31/2019 02:52:01 -79.20,-148.24 104.92 07/31/2019 02:51:18 -79.19,-148.36 104.86 2.62 43
4 07/31/2019 03:41:18 79.54, 21.65 74.60 07/31/2019 03:41:52 79.54, 21.71 74.56 1.27 34
5 08/02/2019 19:08:25 -79.35, -31.40 104.48 08/02/2019 19:08:08 -79.35, -31.35 104.48 1.15 17
6 08/02/2019 19:57:45 79.57, 137.74 75.21 08/02/2019 19:58:46 79.56, 137.67 75.18 1.44 61
7 08/05/2019 10:35:33 79.09, -84.81 76.58 08/05/2019 10:34:26 79.08, -84.94 76.66 2.93 67
8 08/05/2019 11:24:52 -79.41, 84.92 103.89 08/05/2019 11:25:02 -79.41, 84.88 103.89 1.02 10
9 08/08/2019 02:51:57 79.27, 32.21 77.03 08/08/2019 02:51:16 79.27, 32.28 77.05 1.50 41




NCC Satellite Simultaneous Nadir Overpasses (SNOs) Prediction Service
